| time (UTC) | temp C | wind direction | speed KPH | gust KPH | rain 1hr cm | rain 24hr cm | rain mn cm | humidity % | barometer mb |
| 20260906173813 | 25 | 90 | 3.2 | 11.3 | 0.00 | 0.00 | 0.00 | 75 | 1017.3 |
| 20260906173313 | 25 | 158 | 1.6 | 11.3 | 0.00 | 0.00 | 0.00 | 79 | 1017.3 |
| 20260906172813 | 24 | 338 | 1.6 | 11.3 | 0.00 | 0.00 | 0.00 | 80 | 1017.3 |
| 20260906172313 | 23 | 90 | 3.2 | 11.3 | 0.00 | 0.00 | 0.00 | 80 | 1017.3 |
| 20260906171813 | 23 | 113 | 8.0 | 11.3 | 0.00 | 0.00 | 0.00 | 80 | 1017.3 |
| 20260906171313 | 24 | 68 | 3.2 | 11.3 | 0.00 | 0.00 | 0.00 | 81 | 1017.6 |
| 20260906170813 | 23 | 135 | 3.2 | 11.3 | 0.00 | 0.00 | 0.00 | 81 | 1017.6 |
| 20260906170313 | 23 | 225 | 4.8 | 11.3 | 0.00 | 0.00 | 0.00 | 81 | 1017.6 |
| 20260906165814 | 23 | 248 | 3.2 | 11.3 | 0.00 | 0.00 | 0.00 | 81 | 1017.6 |
| 20260906165313 | 23 | 180 | 3.2 | 11.3 | 0.00 | 0.00 | 0.00 | 81 | 1017.6 |
| 20260906164813 | 23 | 203 | 3.2 | 11.3 | 0.00 | 0.00 | 0.00 | 81 | 1017.6 |
| 20260906164313 | 23 | 293 | 3.2 | 11.3 | 0.00 | 0.00 | 0.00 | 81 | 1017.6 |
| 20260906163813 | 23 | 45 | 3.2 | 9.7 | 0.00 | 0.00 | 0.00 | 83 | 1017.6 |
| 20260906163314 | 23 | 270 | 1.6 | 9.7 | 0.00 | 0.00 | 0.00 | 84 | 1017.6 |
| 20260906162813 | 23 | 270 | 3.2 | 9.7 | 0.00 | 0.00 | 0.00 | 83 | 1017.6 |
| 20260906162313 | 23 | 315 | 1.6 | 9.7 | 0.00 | 0.00 | 0.00 | 83 | 1017.9 |
| 20260906161813 | 23 | 68 | 3.2 | 9.7 | 0.00 | 0.00 | 0.00 | 83 | 1017.9 |
| 20260906161313 | 22 | 270 | 4.8 | 9.7 | 0.00 | 0.00 | 0.00 | 85 | 1017.9 |
| 20260906160813 | 22 | 158 | 4.8 | 9.7 | 0.00 | 0.00 | 0.00 | 85 | 1017.9 |
| 20260906160313 | 23 | 158 | 1.6 | 9.7 | 0.00 | 0.00 | 0.00 | 84 | 1017.9 |
| 20260906155813 | 23 | 270 | 1.6 | 11.3 | 0.00 | 0.00 | 0.00 | 84 | 1017.9 |
| 20260906155313 | 23 | 248 | 1.6 | 11.3 | 0.00 | 0.00 | 0.00 | 85 | 1017.9 |
| 20260906154813 | 22 | 113 | 6.4 | 11.3 | 0.00 | 0.00 | 0.00 | 84 | 1017.9 |
| 20260906154313 | 23 | 315 | 3.2 | 11.3 | 0.00 | 0.00 | 0.00 | 84 | 1017.9 |
| 20260906153813 | 23 | 113 | 3.2 | 11.3 | 0.00 | 0.00 | 0.00 | 84 | 1017.9 |
| 20260906153313 | 22 | 113 | 1.6 | 11.3 | 0.00 | 0.00 | 0.00 | 85 | 1017.9 |
| 20260906152813 | 22 | 180 | 3.2 | 11.3 | 0.00 | 0.00 | 0.00 | 85 | 1017.9 |
| 20260906152313 | 22 | 113 | 8.0 | 11.3 | 0.00 | 0.00 | 0.00 | 85 | 1017.9 |
| 20260906151813 | 23 | 113 | 3.2 | 11.3 | 0.00 | 0.00 | 0.00 | 84 | 1017.9 |
| 20260906151313 | 23 | 45 | 6.4 | 11.3 | 0.00 | 0.00 | 0.00 | 83 | 1017.9 |
| 20260906150814 | 23 | 225 | 6.4 | 11.3 | 0.00 | 0.00 | 0.00 | 82 | 1017.9 |
| 20260906150313 | 23 | 113 | 3.2 | 11.3 | 0.00 | 0.00 | 0.00 | 82 | 1017.9 |
| 20260906145813 | 23 | 270 | 11.3 | 11.3 | 0.00 | 0.00 | 0.00 | 82 | 1017.6 |
| 20260906145313 | 23 | 180 | 3.2 | 11.3 | 0.00 | 0.00 | 0.00 | 84 | 1017.6 |
| 20260906144814 | 23 | 45 | 3.2 | 11.3 | 0.00 | 0.00 | 0.00 | 82 | 1017.9 |
| 20260906144313 | 23 | 135 | 3.2 | 11.3 | 0.00 | 0.00 | 0.00 | 82 | 1017.9 |
| 20260906143814 | 23 | 270 | 1.6 | 11.3 | 0.00 | 0.00 | 0.00 | 81 | 1017.6 |
| 20260906143313 | 23 | 225 | 11.3 | 11.3 | 0.00 | 0.00 | 0.00 | 81 | 1017.6 |
| 20260906142813 | 23 | 225 | 3.2 | 9.7 | 0.00 | 0.00 | 0.00 | 80 | 1017.6 |
| 20260906142313 | 24 | 203 | 3.2 | 9.7 | 0.00 | 0.00 | 0.00 | 80 | 1017.6 |
| 20260906141814 | 23 | 180 | 3.2 | 9.7 | 0.00 | 0.00 | 0.00 | 82 | 1017.6 |
| 20260906141314 | 24 | 113 | 3.2 | 9.7 | 0.00 | 0.00 | 0.00 | 82 | 1017.6 |
| 20260906140813 | 23 | 158 | 3.2 | 9.7 | 0.00 | 0.00 | 0.00 | 82 | 1017.6 |
| 20260906140313 | 23 | 270 | 0.0 | 9.7 | 0.00 | 0.00 | 0.00 | 84 | 1017.6 |
| 20260906135813 | 23 | 158 | 3.2 | 9.7 | 0.00 | 0.00 | 0.00 | 85 | 1017.6 |
| 20260906135316 | 23 | 225 | 3.2 | 9.7 | 0.00 | 0.00 | 0.00 | 84 | 1017.6 |
| 20260906134813 | 23 | 293 | 3.2 | 9.7 | 0.00 | 0.00 | 0.00 | 85 | 1017.6 |
| 20260906134313 | 22 | 135 | 3.2 | 9.7 | 0.00 | 0.00 | 0.00 | 87 | 1017.6 |
| 20260906133818 | 22 | 225 | 3.2 | 9.7 | 0.00 | 0.00 | 0.00 | 87 | 1017.3 |
| 20260906133313 | 22 | 45 | 3.2 | 8.0 | 0.00 | 0.00 | 0.00 | 88 | 1017.3 |
| 20260906132813 | 22 | 225 | 3.2 | 8.0 | 0.00 | 0.00 | 0.00 | 88 | 1017.3 |
| 20260906132313 | 22 | 225 | 0.0 | 8.0 | 0.00 | 0.00 | 0.00 | 89 | 1017.3 |
| 20260906131814 | 21 | 248 | 0.0 | 8.0 | 0.00 | 0.00 | 0.00 | 90 | 1017.3 |
| 20260906131313 | 21 | 203 | 3.2 | 8.0 | 0.00 | 0.00 | 0.00 | 90 | 1017.3 |
| 20260906130813 | 21 | 158 | 6.4 | 8.0 | 0.00 | 0.00 | 0.00 | 90 | 1017.3 |
| 20260906130313 | 21 | 180 | 0.0 | 8.0 | 0.00 | 0.00 | 0.00 | 90 | 1017.3 |
| 20260906125813 | 21 | 113 | 6.4 | 8.0 | 0.00 | 0.00 | 0.00 | 90 | 1017.3 |
| 20260906125313 | 21 | 90 | 4.8 | 8.0 | 0.00 | 0.00 | 0.00 | 90 | 1017.3 |
| 20260906124813 | 21 | 113 | 3.2 | 6.4 | 0.00 | 0.00 | 0.00 | 91 | 1017.3 |
| 20260906124313 | 21 | 203 | 1.6 | 4.8 | 0.00 | 0.00 | 0.00 | 91 | 1017.3 |
| 20260906123813 | 21 | 225 | 0.0 | 4.8 | 0.00 | 0.00 | 0.00 | 91 | 1017.3 |
| 20260906123313 | 20 | 90 | 1.6 | 4.8 | 0.00 | 0.00 | 0.00 | 91 | 1017.3 |
| 20260906122813 | 20 | 68 | 0.0 | 4.8 | 0.00 | 0.00 | 0.00 | 91 | 1017.3 |
| 20260906122313 | 20 | 270 | 3.2 | 3.2 | 0.00 | 0.00 | 0.00 | 91 | 1017.3 |
| 20260906121813 | 20 | 90 | 0.0 | 3.2 | 0.00 | 0.00 | 0.00 | 91 | 1017.3 |
| 20260906121313 | 20 | 113 | 0.0 | 3.2 | 0.00 | 0.00 | 0.00 | 91 | 1017.3 |
| 20260906120813 | 20 | 270 | 0.0 | 3.2 | 0.00 | 0.00 | 0.00 | 91 | 1017.3 |
| 20260906120313 | 20 | 225 | 0.0 | 3.2 | 0.00 | 0.00 | 0.00 | 91 | 1017.3 |
| 20260906115813 | 20 | 293 | 0.0 | 3.2 | 0.00 | 0.00 | 0.00 | 90 | 1016.9 |
| 20260906115313 | 20 | 225 | 0.0 | 3.2 | 0.00 | 0.00 | 0.00 | 90 | 1016.9 |
| 20260906114813 | 20 | 90 | 0.0 | 3.2 | 0.00 | 0.00 | 0.00 | 90 | 1016.9 |
| 20260906114313 | 20 | 68 | 0.0 | 3.2 | 0.00 | 0.00 | 0.00 | 90 | 1016.9 |
| 20260906113813 | 20 | 203 | 0.0 | 3.2 | 0.00 | 0.00 | 0.00 | 90 | 1016.9 |
| 20260906113313 | 20 | 23 | 0.0 | 3.2 | 0.00 | 0.00 | 0.00 | 90 | 1016.9 |
| 20260906112813 | 21 | 360 | 0.0 | 3.2 | 0.00 | 0.00 | 0.00 | 90 | 1016.9 |
| 20260906112314 | 21 | 248 | 0.0 | 3.2 | 0.00 | 0.00 | 0.00 | 90 | 1016.6 |
| 20260906111814 | 21 | 270 | 0.0 | 3.2 | 0.00 | 0.00 | 0.00 | 90 | 1016.6 |
| 20260906111325 | 21 | 135 | 1.6 | 3.2 | 0.00 | 0.00 | 0.00 | 90 | 1016.6 |
| 20260906110813 | 21 | 90 | 3.2 | 3.2 | 0.00 | 0.00 | 0.00 | 90 | 1016.6 |
| 20260906110314 | 21 | 338 | 0.0 | 3.2 | 0.00 | 0.00 | 0.00 | 90 | 1016.6 |
| 20260906105813 | 21 | 68 | 0.0 | 3.2 | 0.00 | 0.00 | 0.00 | 90 | 1016.3 |
| 20260906105313 | 21 | 270 | 0.0 | 3.2 | 0.00 | 0.00 | 0.00 | 90 | 1016.3 |
| 20260906104813 | 21 | 68 | 0.0 | 3.2 | 0.00 | 0.00 | 0.00 | 90 | 1016.6 |
| 20260906104313 | 21 | 90 | 0.0 | 3.2 | 0.00 | 0.00 | 0.00 | 90 | 1016.6 |
| 20260906103813 | 21 | 203 | 0.0 | 3.2 | 0.00 | 0.00 | 0.00 | 90 | 1016.6 |
| 20260906103313 | 21 | 23 | 3.2 | 3.2 | 0.00 | 0.00 | 0.00 | 90 | 1016.6 |
| 20260906102814 | 21 | 45 | 0.0 | 3.2 | 0.00 | 0.00 | 0.00 | 90 | 1016.6 |
| 20260906102313 | 21 | 135 | 3.2 | 3.2 | 0.00 | 0.00 | 0.00 | 90 | 1016.3 |
| 20260906101813 | 21 | 90 | 1.6 | 3.2 | 0.00 | 0.00 | 0.00 | 90 | 1016.3 |
| 20260906101314 | 21 | 90 | 0.0 | 3.2 | 0.00 | 0.00 | 0.00 | 90 | 1016.3 |
| 20260906100813 | 21 | 23 | 0.0 | 3.2 | 0.00 | 0.00 | 0.00 | 90 | 1016.3 |
| 20260906100313 | 21 | 113 | 0.0 | 3.2 | 0.00 | 0.00 | 0.00 | 90 | 1016.3 |
| 20260906095813 | 21 | 248 | 3.2 | 3.2 | 0.00 | 0.00 | 0.00 | 90 | 1016.3 |
| 20260906095314 | 21 | 270 | 0.0 | 3.2 | 0.00 | 0.00 | 0.00 | 90 | 1016.3 |
| 20260906094813 | 21 | 270 | 0.0 | 3.2 | 0.00 | 0.00 | 0.00 | 89 | 1015.9 |
| 20260906094313 | 21 | 248 | 0.0 | 3.2 | 0.00 | 0.00 | 0.00 | 89 | 1015.9 |
| 20260906093813 | 21 | 90 | 0.0 | 3.2 | 0.00 | 0.00 | 0.00 | 89 | 1015.6 |
| 20260906093313 | 21 | 203 | 0.0 | 3.2 | 0.00 | 0.00 | 0.00 | 89 | 1015.6 |
| 20260906092814 | 21 | 23 | 0.0 | 3.2 | 0.00 | 0.00 | 0.00 | 89 | 1015.6 |
| 20260906092314 | 21 | 113 | 0.0 | 3.2 | 0.00 | 0.00 | 0.00 | 89 | 1015.6 |
| 20260906091813 | 21 | 90 | 3.2 | 3.2 | 0.00 | 0.00 | 0.00 | 89 | 1015.6 |
| 20260906091313 | 21 | 113 | 1.6 | 3.2 | 0.00 | 0.00 | 0.00 | 89 | 1015.9 |
| 20260906090813 | 21 | 270 | 0.0 | 3.2 | 0.00 | 0.00 | 0.00 | 89 | 1015.9 |
| 20260906090313 | 21 | 270 | 0.0 | 3.2 | 0.00 | 0.00 | 0.00 | 89 | 1015.9 |
| 20260906085813 | 21 | 270 | 0.0 | 3.2 | 0.00 | 0.00 | 0.00 | 89 | 1015.9 |
| 20260906085313 | 21 | 113 | 0.0 | 3.2 | 0.00 | 0.00 | 0.00 | 89 | 1015.9 |
| 20260906084813 | 21 | 248 | 0.0 | 3.2 | 0.00 | 0.00 | 0.00 | 89 | 1015.6 |
| 20260906084313 | 21 | 248 | 0.0 | 3.2 | 0.00 | 0.00 | 0.00 | 89 | 1015.6 |
| 20260906083813 | 22 | 180 | 0.0 | 4.8 | 0.00 | 0.00 | 0.00 | 89 | 1015.6 |
| 20260906083313 | 22 | 248 | 0.0 | 4.8 | 0.00 | 0.00 | 0.00 | 88 | 1015.6 |
| 20260906082815 | 22 | 113 | 1.6 | 4.8 | 0.00 | 0.00 | 0.00 | 88 | 1015.6 |
| 20260906082313 | 22 | 68 | 3.2 | 4.8 | 0.00 | 0.00 | 0.00 | 88 | 1015.6 |
| 20260906081815 | 22 | 248 | 0.0 | 4.8 | 0.00 | 0.00 | 0.00 | 88 | 1015.6 |
| 20260906081313 | 22 | 203 | 3.2 | 4.8 | 0.00 | 0.00 | 0.00 | 88 | 1015.2 |
| 20260906080813 | 22 | 135 | 0.0 | 4.8 | 0.00 | 0.00 | 0.00 | 88 | 1015.2 |
| 20260906080313 | 22 | 158 | 1.6 | 4.8 | 0.00 | 0.00 | 0.00 | 87 | 1015.2 |
| 20260906075814 | 22 | 225 | 0.0 | 4.8 | 0.00 | 0.00 | 0.00 | 87 | 1015.6 |
| 20260906075314 | 22 | 90 | 0.0 | 4.8 | 0.00 | 0.00 | 0.00 | 87 | 1015.6 |
| 20260906074813 | 22 | 180 | 3.2 | 4.8 | 0.00 | 0.00 | 0.00 | 87 | 1015.6 |
| 20260906074313 | 22 | 113 | 0.0 | 4.8 | 0.00 | 0.00 | 0.00 | 87 | 1015.6 |
| 20260906073814 | 22 | 338 | 0.0 | 3.2 | 0.00 | 0.00 | 0.00 | 86 | 1015.6 |
| 20260906073314 | 22 | 158 | 0.0 | 3.2 | 0.00 | 0.00 | 0.00 | 86 | 1015.6 |
| 20260906072813 | 22 | 360 | 0.0 | 3.2 | 0.00 | 0.00 | 0.00 | 86 | 1015.6 |
| 20260906072313 | 22 | 248 | 3.2 | 3.2 | 0.00 | 0.00 | 0.00 | 86 | 1015.9 |
| 20260906071813 | 23 | 68 | 0.0 | 3.2 | 0.00 | 0.00 | 0.00 | 86 | 1015.9 |
| 20260906071314 | 23 | 225 | 1.6 | 3.2 | 0.00 | 0.00 | 0.00 | 86 | 1015.9 |
| 20260906070813 | 23 | 180 | 0.0 | 3.2 | 0.00 | 0.00 | 0.00 | 86 | 1015.9 |
| 20260906070313 | 23 | 180 | 3.2 | 3.2 | 0.00 | 0.00 | 0.00 | 86 | 1015.9 |
| 20260906065813 | 23 | 225 | 3.2 | 3.2 | 0.00 | 0.00 | 0.00 | 86 | 1016.3 |
| 20260906065313 | 23 | 90 | 1.6 | 3.2 | 0.00 | 0.00 | 0.00 | 86 | 1016.3 |
| 20260906064813 | 23 | 68 | 0.0 | 3.2 | 0.00 | 0.00 | 0.00 | 86 | 1015.9 |
| 20260906064313 | 23 | 248 | 1.6 | 3.2 | 0.00 | 0.00 | 0.00 | 85 | 1015.9 |
| 20260906063813 | 23 | 135 | 0.0 | 3.2 | 0.00 | 0.00 | 0.00 | 85 | 1015.9 |
| 20260906063313 | 23 | 203 | 0.0 | 3.2 | 0.00 | 0.00 | 0.00 | 85 | 1015.9 |
| 20260906062814 | 23 | 248 | 0.0 | 3.2 | 0.00 | 0.00 | 0.00 | 85 | 1015.9 |
| 20260906062314 | 23 | 113 | 0.0 | 3.2 | 0.00 | 0.00 | 0.00 | 85 | 1015.9 |
| 20260906061813 | 23 | 158 | 1.6 | 3.2 | 0.00 | 0.00 | 0.00 | 85 | 1015.9 |
| 20260906061313 | 23 | 248 | 0.0 | 3.2 | 0.00 | 0.00 | 0.00 | 85 | 1015.9 |
| 20260906060813 | 23 | 113 | 0.0 | 3.2 | 0.00 | 0.00 | 0.00 | 85 | 1015.9 |
| 20260906060314 | 23 | 113 | 1.6 | 3.2 | 0.00 | 0.00 | 0.00 | 85 | 1015.9 |
| 20260906055813 | 23 | 113 | 0.0 | 3.2 | 0.00 | 0.00 | 0.00 | 85 | 1015.9 |
| 20260906055314 | 23 | 270 | 0.0 | 3.2 | 0.00 | 0.00 | 0.00 | 85 | 1015.9 |
| 20260906054813 | 23 | 248 | 0.0 | 3.2 | 0.00 | 0.00 | 0.00 | 85 | 1015.9 |
| 20260906054314 | 23 | 180 | 0.0 | 3.2 | 0.00 | 0.00 | 0.00 | 85 | 1015.9 |
| 20260906053813 | 23 | 90 | 0.0 | 3.2 | 0.00 | 0.00 | 0.00 | 84 | 1015.9 |
| 20260906053314 | 23 | 270 | 0.0 | 3.2 | 0.00 | 0.00 | 0.00 | 84 | 1015.9 |
| 20260906052813 | 23 | 90 | 0.0 | 3.2 | 0.00 | 0.00 | 0.00 | 84 | 1015.9 |
| 20260906052313 | 23 | 135 | 1.6 | 3.2 | 0.00 | 0.00 | 0.00 | 84 | 1015.9 |
| 20260906051813 | 23 | 248 | 0.0 | 3.2 | 0.00 | 0.00 | 0.00 | 84 | 1015.9 |
| 20260906051314 | 23 | 113 | 3.2 | 3.2 | 0.00 | 0.00 | 0.00 | 84 | 1016.3 |
| 20260906050813 | 23 | 113 | 3.2 | 3.2 | 0.00 | 0.00 | 0.00 | 84 | 1016.3 |
| 20260906050313 | 23 | 158 | 3.2 | 3.2 | 0.00 | 0.00 | 0.00 | 84 | 1016.3 |
| 20260906045813 | 23 | 68 | 3.2 | 3.2 | 0.00 | 0.00 | 0.00 | 84 | 1016.6 |
| 20260906045313 | 23 | 113 | 0.0 | 3.2 | 0.00 | 0.00 | 0.00 | 84 | 1016.6 |
| 20260906044816 | 23 | 248 | 0.0 | 3.2 | 0.00 | 0.00 | 0.00 | 84 | 1016.6 |
| 20260906044314 | 23 | 158 | 0.0 | 3.2 | 0.00 | 0.00 | 0.00 | 84 | 1016.6 |
| 20260906043813 | 23 | 180 | 3.2 | 3.2 | 0.00 | 0.00 | 0.00 | 84 | 1016.6 |
| 20260906043313 | 23 | 90 | 0.0 | 3.2 | 0.00 | 0.00 | 0.00 | 84 | 1016.6 |
| 20260906042813 | 23 | 180 | 0.0 | 3.2 | 0.00 | 0.00 | 0.00 | 84 | 1016.6 |
| 20260906042313 | 23 | 158 | 0.0 | 3.2 | 0.00 | 0.00 | 0.00 | 84 | 1016.6 |
| 20260906041813 | 23 | 135 | 0.0 | 3.2 | 0.00 | 0.00 | 0.00 | 84 | 1016.6 |
| 20260906041313 | 23 | 225 | 0.0 | 3.2 | 0.00 | 0.00 | 0.00 | 84 | 1016.6 |
| 20260906040813 | 23 | 180 | 0.0 | 3.2 | 0.00 | 0.00 | 0.00 | 84 | 1016.6 |
| 20260906040313 | 23 | 158 | 0.0 | 0.0 | 0.00 | 0.00 | 0.00 | 84 | 1016.6 |
| 20260906035813 | 23 | 135 | 0.0 | 0.0 | 0.00 | 0.00 | 0.00 | 84 | 1016.9 |
| 20260906035313 | 23 | 135 | 0.0 | 0.0 | 0.00 | 0.00 | 0.00 | 84 | 1016.9 |
| 20260906034813 | 23 | 135 | 0.0 | 0.0 | 0.00 | 0.00 | 0.00 | 84 | 1016.6 |
| 20260906034313 | 23 | 113 | 0.0 | 3.2 | 0.00 | 0.00 | 0.00 | 83 | 1016.6 |
| 20260906033813 | 23 | 135 | 0.0 | 3.2 | 0.00 | 0.00 | 0.00 | 83 | 1016.6 |
| 20260906033313 | 24 | 180 | 0.0 | 3.2 | 0.00 | 0.00 | 0.00 | 83 | 1016.6 |
| 20260906032813 | 24 | 270 | 0.0 | 3.2 | 0.00 | 0.00 | 0.00 | 83 | 1016.6 |
| 20260906032313 | 24 | 113 | 0.0 | 3.2 | 0.00 | 0.00 | 0.00 | 82 | 1016.6 |
| 20260906031814 | 24 | 135 | 0.0 | 3.2 | 0.00 | 0.00 | 0.00 | 82 | 1016.6 |
| 20260906031313 | 25 | 203 | 0.0 | 3.2 | 0.00 | 0.00 | 0.00 | 81 | 1016.6 |
| 20260906030814 | 25 | 158 | 0.0 | 4.8 | 0.00 | 0.00 | 0.00 | 80 | 1016.6 |
| 20260906030313 | 25 | 180 | 0.0 | 4.8 | 0.00 | 0.00 | 0.00 | 80 | 1016.6 |
| 20260906025813 | 25 | 225 | 0.0 | 4.8 | 0.00 | 0.00 | 0.00 | 79 | 1016.6 |
| 20260906025314 | 25 | 158 | 0.0 | 4.8 | 0.00 | 0.00 | 0.00 | 78 | 1016.6 |
| 20260906024813 | 25 | 113 | 0.0 | 4.8 | 0.00 | 0.00 | 0.00 | 78 | 1016.9 |
| 20260906024313 | 25 | 225 | 0.0 | 8.0 | 0.00 | 0.00 | 0.00 | 78 | 1016.9 |
| 20260906023813 | 25 | 270 | 0.0 | 11.3 | 0.00 | 0.00 | 0.00 | 78 | 1016.6 |
| 20260906023314 | 25 | 113 | 0.0 | 11.3 | 0.00 | 0.00 | 0.00 | 78 | 1016.6 |
| 20260906022813 | 25 | 90 | 0.0 | 11.3 | 0.00 | 0.00 | 0.00 | 78 | 1016.6 |
| 20260906022314 | 25 | 23 | 0.0 | 11.3 | 0.00 | 0.00 | 0.00 | 78 | 1016.3 |
| 20260906021813 | 25 | 180 | 0.0 | 11.3 | 0.00 | 0.00 | 0.00 | 78 | 1016.3 |
| 20260906021313 | 25 | 113 | 0.0 | 11.3 | 0.00 | 0.00 | 0.00 | 78 | 1015.9 |
| 20260906020813 | 25 | 90 | 3.2 | 11.3 | 0.00 | 0.00 | 0.00 | 78 | 1015.9 |
| 20260906020313 | 25 | 113 | 3.2 | 11.3 | 0.00 | 0.00 | 0.00 | 77 | 1015.9 |
| 20260906015814 | 25 | 135 | 0.0 | 11.3 | 0.00 | 0.00 | 0.00 | 77 | 1015.6 |
| 20260906015313 | 25 | 225 | 0.0 | 11.3 | 0.00 | 0.00 | 0.00 | 76 | 1015.6 |
| 20260906014813 | 26 | 293 | 1.6 | 11.3 | 0.00 | 0.00 | 0.00 | 76 | 1015.2 |
| 20260906014313 | 26 | 45 | 3.2 | 11.3 | 0.00 | 0.00 | 0.00 | 75 | 1015.2 |
| 20260906013813 | 26 | 158 | 11.3 | 11.3 | 0.00 | 0.00 | 0.00 | 75 | 1014.6 |
| 20260906013314 | 26 | 270 | 0.0 | 8.0 | 0.00 | 0.00 | 0.00 | 74 | 1014.6 |
| 20260906012813 | 26 | 203 | 3.2 | 8.0 | 0.00 | 0.00 | 0.00 | 73 | 1014.6 |
| 20260906012314 | 26 | 158 | 6.4 | 8.0 | 0.00 | 0.00 | 0.00 | 73 | 1014.6 |
| 20260906011813 | 26 | 225 | 1.6 | 8.0 | 0.00 | 0.00 | 0.00 | 73 | 1014.6 |
| 20260906011314 | 26 | 68 | 6.4 | 8.0 | 0.00 | 0.00 | 0.00 | 72 | 1014.2 |
| 20260906010813 | 27 | 203 | 1.6 | 8.0 | 0.00 | 0.00 | 0.00 | 72 | 1014.2 |
| 20260906010314 | 27 | 68 | 3.2 | 8.0 | 0.00 | 0.00 | 0.00 | 71 | 1014.2 |
| 20260906005813 | 27 | 270 | 0.0 | 8.0 | 0.00 | 0.00 | 0.00 | 70 | 1014.2 |
| 20260906005313 | 27 | 45 | 4.8 | 8.0 | 0.00 | 0.00 | 0.00 | 67 | 1014.2 |
| 20260906004814 | 28 | 293 | 3.2 | 8.0 | 0.00 | 0.00 | 0.00 | 66 | 1014.2 |
| 20260906004313 | 28 | 203 | 0.0 | 8.0 | 0.00 | 0.00 | 0.00 | 63 | 1014.2 |
| 20260906003814 | 28 | 135 | 1.6 | 8.0 | 0.00 | 0.00 | 0.00 | 62 | 1013.9 |
| 20260906003313 | 28 | 248 | 3.2 | 8.0 | 0.00 | 0.00 | 0.00 | 60 | 1013.9 |
| 20260906002813 | 28 | 23 | 3.2 | 8.0 | 0.00 | 0.00 | 0.00 | 60 | 1013.9 |
| 20260906002313 | 28 | 135 | 3.2 | 8.0 | 0.00 | 0.00 | 0.00 | 60 | 1013.5 |
| 20260906001814 | 29 | 203 | 1.6 | 8.0 | 0.00 | 0.00 | 0.00 | 59 | 1013.5 |
| 20260906001313 | 29 | 270 | 8.0 | 8.0 | 0.00 | 0.00 | 0.00 | 59 | 1013.9 |
| 20260906000813 | 30 | 23 | 3.2 | 8.0 | 0.00 | 0.00 | 0.00 | 59 | 1013.9 |
| 20260906000314 | 30 | 203 | 0.0 | 8.0 | 0.00 | 0.00 | 0.00 | 58 | 1013.9 |
| 20260905235814 | 30 | 248 | 3.2 | 8.0 | 0.00 | 0.00 | 0.00 | 57 | 1013.9 |
| 20260905235314 | 30 | 135 | 3.2 | 8.0 | 0.00 | 0.00 | 0.00 | 56 | 1013.9 |
| 20260905234813 | 31 | 113 | 3.2 | 8.0 | 0.00 | 0.00 | 0.00 | 55 | 1013.9 |
| 20260905234314 | 31 | 270 | 3.2 | 6.4 | 0.00 | 0.00 | 0.00 | 55 | 1013.9 |
| 20260905233813 | 31 | 203 | 1.6 | 6.4 | 0.00 | 0.00 | 0.00 | 54 | 1013.5 |
| 20260905233313 | 31 | 180 | 3.2 | 6.4 | 0.00 | 0.00 | 0.00 | 56 | 1013.5 |
| 20260905232813 | 30 | 270 | 0.0 | 6.4 | 0.00 | 0.00 | 0.00 | 56 | 1013.5 |
| 20260905232313 | 30 | 113 | 0.0 | 6.4 | 0.00 | 0.00 | 0.00 | 56 | 1013.5 |
| 20260905231815 | 30 | 270 | 3.2 | 6.4 | 0.00 | 0.00 | 0.00 | 55 | 1013.5 |
| 20260905231313 | 30 | 248 | 1.6 | 6.4 | 0.00 | 0.00 | 0.00 | 56 | 1013.2 |
| 20260905230813 | 30 | 135 | 3.2 | 6.4 | 0.00 | 0.00 | 0.00 | 58 | 1013.2 |
| 20260905230313 | 31 | 225 | 4.8 | 6.4 | 0.00 | 0.00 | 0.00 | 56 | 1013.2 |
| 20260905225814 | 31 | 270 | 3.2 | 6.4 | 0.00 | 0.00 | 0.00 | 56 | 1013.2 |
| 20260905225314 | 31 | 135 | 3.2 | 6.4 | 0.00 | 0.00 | 0.00 | 55 | 1013.2 |
| 20260905224813 | 32 | 158 | 0.0 | 6.4 | 0.00 | 0.00 | 0.00 | 54 | 1013.2 |
| 20260905224314 | 31 | 135 | 0.0 | 6.4 | 0.00 | 0.00 | 0.00 | 55 | 1013.2 |
| 20260905223813 | 31 | 135 | 3.2 | 6.4 | 0.00 | 0.00 | 0.00 | 52 | 1013.2 |
| 20260905223315 | 31 | 180 | 0.0 | 6.4 | 0.00 | 0.00 | 0.00 | 51 | 1013.2 |
| 20260905222813 | 31 | 225 | 3.2 | 6.4 | 0.00 | 0.00 | 0.00 | 52 | 1013.2 |
| 20260905222314 | 31 | 158 | 3.2 | 6.4 | 0.00 | 0.00 | 0.00 | 52 | 1013.5 |
| 20260905221813 | 31 | 135 | 3.2 | 6.4 | 0.00 | 0.00 | 0.00 | 52 | 1013.5 |
| 20260905221314 | 31 | 158 | 3.2 | 6.4 | 0.00 | 0.00 | 0.00 | 53 | 1013.5 |
| 20260905220813 | 31 | 248 | 1.6 | 6.4 | 0.00 | 0.00 | 0.00 | 52 | 1013.5 |
| 20260905220313 | 32 | 113 | 3.2 | 6.4 | 0.00 | 0.00 | 0.00 | 52 | 1013.5 |
| 20260905215813 | 32 | 203 | 3.2 | 6.4 | 0.00 | 0.00 | 0.00 | 55 | 1013.5 |
| 20260905215314 | 31 | 270 | 0.0 | 6.4 | 0.00 | 0.00 | 0.00 | 56 | 1013.5 |
| 20260905214813 | 31 | 135 | 0.0 | 6.4 | 0.00 | 0.00 | 0.00 | 55 | 1013.5 |
| 20260905214313 | 31 | 225 | 3.2 | 6.4 | 0.00 | 0.00 | 0.00 | 56 | 1013.5 |
| 20260905213813 | 31 | 113 | 3.2 | 6.4 | 0.00 | 0.00 | 0.00 | 58 | 1013.5 |
| 20260905213313 | 31 | 113 | 3.2 | 6.4 | 0.00 | 0.00 | 0.00 | 58 | 1013.5 |
| 20260905212813 | 31 | 135 | 3.2 | 6.4 | 0.00 | 0.00 | 0.00 | 56 | 1013.5 |
| 20260905212313 | 31 | 113 | 3.2 | 6.4 | 0.00 | 0.00 | 0.00 | 58 | 1013.5 |
| 20260905211813 | 31 | 203 | 3.2 | 6.4 | 0.00 | 0.00 | 0.00 | 57 | 1013.5 |
| 20260905211313 | 31 | 315 | 3.2 | 6.4 | 0.00 | 0.00 | 0.00 | 58 | 1013.5 |
| 20260905210813 | 31 | 270 | 3.2 | 6.4 | 0.00 | 0.00 | 0.00 | 58 | 1013.5 |
| 20260905210313 | 31 | 225 | 3.2 | 6.4 | 0.00 | 0.00 | 0.00 | 59 | 1013.5 |
| 20260905205814 | 30 | 180 | 3.2 | 6.4 | 0.00 | 0.00 | 0.00 | 59 | 1013.9 |
| 20260905205313 | 30 | 180 | 3.2 | 6.4 | 0.00 | 0.00 | 0.00 | 60 | 1013.9 |
| 20260905204813 | 30 | 270 | 3.2 | 6.4 | 0.00 | 0.00 | 0.00 | 61 | 1014.6 |
| 20260905204316 | 31 | 270 | 3.2 | 6.4 | 0.00 | 0.00 | 0.00 | 61 | 1014.6 |
| 20260905203815 | 31 | 135 | 3.2 | 6.4 | 0.00 | 0.00 | 0.00 | 60 | 1014.6 |
| 20260905203313 | 30 | 113 | 3.2 | 6.4 | 0.00 | 0.00 | 0.00 | 62 | 1014.6 |
| 20260905202813 | 30 | 135 | 3.2 | 6.4 | 0.00 | 0.00 | 0.00 | 63 | 1014.6 |
| 20260905202313 | 30 | 135 | 3.2 | 6.4 | 0.00 | 0.00 | 0.00 | 64 | 1014.9 |
| 20260905201814 | 29 | 113 | 3.2 | 6.4 | 0.00 | 0.00 | 0.00 | 66 | 1014.9 |
| 20260905201313 | 29 | 248 | 0.0 | 6.4 | 0.00 | 0.00 | 0.00 | 65 | 1015.2 |
| 20260905200813 | 28 | 90 | 0.0 | 6.4 | 0.00 | 0.00 | 0.00 | 66 | 1015.2 |
| 20260905200313 | 28 | 270 | 1.6 | 6.4 | 0.00 | 0.00 | 0.00 | 67 | 1015.2 |
| 20260905195813 | 28 | 113 | 3.2 | 6.4 | 0.00 | 0.00 | 0.00 | 67 | 1015.2 |
| 20260905195313 | 28 | 270 | 3.2 | 4.8 | 0.00 | 0.00 | 0.00 | 65 | 1015.2 |
| 20260905194813 | 29 | 270 | 1.6 | 4.8 | 0.00 | 0.00 | 0.00 | 64 | 1015.6 |
| 20260905194313 | 28 | 135 | 0.0 | 4.8 | 0.00 | 0.00 | 0.00 | 69 | 1015.6 |
| 20260905193813 | 28 | 158 | 3.2 | 4.8 | 0.00 | 0.00 | 0.00 | 65 | 1015.6 |
| 20260905193314 | 29 | 180 | 3.2 | 4.8 | 0.00 | 0.00 | 0.00 | 64 | 1015.6 |
| 20260905192815 | 30 | 360 | 1.6 | 4.8 | 0.00 | 0.00 | 0.00 | 62 | 1015.6 |
| 20260905192313 | 30 | 113 | 3.2 | 4.8 | 0.00 | 0.00 | 0.00 | 62 | 1015.9 |
| 20260905191814 | 30 | 135 | 3.2 | 4.8 | 0.00 | 0.00 | 0.00 | 62 | 1015.9 |
| 20260905191313 | 29 | 225 | 0.0 | 4.8 | 0.00 | 0.00 | 0.00 | 65 | 1015.9 |
| 20260905190813 | 29 | 45 | 3.2 | 4.8 | 0.00 | 0.00 | 0.00 | 64 | 1015.9 |
| 20260905190316 | 28 | 113 | 1.6 | 4.8 | 0.00 | 0.00 | 0.00 | 70 | 1015.9 |
| 20260905185813 | 28 | 315 | 0.0 | 4.8 | 0.00 | 0.00 | 0.00 | 70 | 1015.6 |
| 20260905185315 | 28 | 113 | 3.2 | 6.4 | 0.00 | 0.00 | 0.00 | 69 | 1015.6 |
| 20260905184814 | 28 | 203 | 0.0 | 6.4 | 0.00 | 0.00 | 0.00 | 70 | 1015.6 |
| 20260905184313 | 27 | 180 | 3.2 | 6.4 | 0.00 | 0.00 | 0.00 | 71 | 1015.6 |
| 20260905183813 | 27 | 135 | 3.2 | 6.4 | 0.00 | 0.00 | 0.00 | 73 | 1015.6 |
| 20260905183313 | 26 | 158 | 0.0 | 6.4 | 0.00 | 0.00 | 0.00 | 73 | 1015.9 |
| 20260905182813 | 27 | 158 | 0.0 | 6.4 | 0.00 | 0.00 | 0.00 | 72 | 1015.9 |
| 20260905182313 | 27 | 158 | 0.0 | 6.4 | 0.00 | 0.00 | 0.00 | 70 | 1015.9 |
| 20260905181813 | 28 | 248 | 1.6 | 6.4 | 0.00 | 0.00 | 0.00 | 70 | 1015.9 |
| 20260905181313 | 28 | 113 | 3.2 | 6.4 | 0.00 | 0.00 | 0.00 | 68 | 1016.3 |
| 20260905180813 | 28 | 113 | 3.2 | 6.4 | 0.00 | 0.00 | 0.00 | 68 | 1016.3 |
| 20260905180313 | 27 | 180 | 3.2 | 6.4 | 0.00 | 0.00 | 0.00 | 72 | 1016.3 |
| 20260905175813 | 27 | 248 | 0.0 | 6.4 | 0.00 | 0.00 | 0.00 | 72 | 1016.3 |
| 20260905175315 | 27 | 360 | 6.4 | 6.4 | 0.00 | 0.00 | 0.00 | 72 | 1016.3 |
| 20260905174813 | 26 | 270 | 0.0 | 6.4 | 0.00 | 0.00 | 0.00 | 76 | 1016.6 |
| 20260905174313 | 26 | 270 | 1.6 | 6.4 | 0.00 | 0.00 | 0.00 | 77 | 1016.6 |